Home   Weather   Columbus   Past weeks
Flag for USA

Past Weather in Columbus, New Mexico, USA — Yesterday and Last 2 Weeks

Now
47 °F

Partly cloudy.


Feels Like: 43 °F
Forecast: 63 / 46 °F
Wind: 8 mph from South

Location: El Paso International Airport

Current Time: Jan 21, 2020 at 9:55:55 pm

Latest Report: Jan 21, 2020 at 8:51 pm


Visibility: 10 mi

Pressure: 30.00 "Hg

Humidity: 83%

Dew Point: 42 °F

Location of ColumbusLocation

Past Weather in Columbus — Graph

°F

Columbus Temperature Yesterday

Maximum temperature yesterday: 58 °F (at 3:51 pm)
Minimum temperature yesterday: 40 °F (at 4:51 am)
Average temperature yesterday: 49 °F

High & Low Weather Summary for the Past Weeks

 TemperatureHumidityPressure
High69 °F (Jan 13, 2:51 pm)89% (Jan 17, 4:51 am)30.39 "Hg (Jan 17, 4:51 am)
Low25 °F (Jan 11, 6:51 am)10% (Jan 14, 3:51 pm)29.65 "Hg (Jan 10, 2:51 am)
Average49 °F39%30.06 "Hg
* Reported Jan 6 7:51 pm — Jan 21 7:51 pm, Columbus. Weather by CustomWeather, © 2020

Note: Actual official high and low records may vary slightly from our data, if they occured in-between our weather recording intervals... More about our weather records

Columbus Weather History for the Previous 24 Hours

Scroll right to see more
 ConditionsComfort  
Time TempWeatherWind HumidityBarometerVisibility
7:51 pm
Tue, Jan 21
48 °FMostly cloudy.10 mph80%30.02 "Hg10 mi
7:29 pm48 °FMostly cloudy.9 mph80%30.09 "Hg10 mi
6:51 pm48 °FOvercast.7 mph80%30.01 "Hg10 mi
5:51 pm47 °FOvercast.8 mph83%30.00 "Hg10 mi
4:51 pm46 °FMostly cloudy.8 mph83%29.99 "Hg10 mi
3:51 pm46 °FMostly cloudy.5 mph83%29.99 "Hg10 mi
2:51 pm45 °FLight rain. Mostly cloudy.10 mph86%29.97 "Hg8 mi
2:30 pm45 °FLight rain. More clouds than sun.8 mph86%30.08 "Hg8 mi
1:51 pm45 °FLight rain. Fog.5 mph86%30.05 "Hg6 mi
12:51 pm47 °FLight rain. Overcast.12 mph77%30.04 "Hg8 mi
11:51 am49 °FLight rain. Mostly cloudy.7 mph61%30.06 "Hg6 mi
10:51 am50 °FLight rain. Mostly cloudy.7 mph50%30.06 "Hg10 mi
9:51 am49 °FCloudy.5 mph48%30.07 "Hg10 mi
8:51 am48 °FCloudy.7 mph50%30.06 "Hg10 mi
7:51 am44 °FPartly sunny.3 mph58%30.06 "Hg10 mi
6:51 am44 °FPartly cloudy.6 mph53%30.07 "Hg10 mi
5:51 am44 °FPartly cloudy.9 mph55%30.06 "Hg10 mi
4:51 am44 °FPartly cloudy.7 mph55%30.07 "Hg10 mi
3:51 am47 °FPartly cloudy.No wind48%30.09 "Hg10 mi
2:51 am47 °FPartly cloudy.6 mph48%30.10 "Hg10 mi
1:51 am47 °FPartly cloudy.No wind46%30.14 "Hg10 mi
12:51 am48 °FPartly cloudy.5 mph44%30.15 "Hg10 mi
11:51 pm
Mon, Jan 20
48 °FPartly cloudy.3 mph44%30.18 "Hg10 mi
10:51 pm50 °FPartly cloudy.3 mph41%30.20 "Hg10 mi
9:51 pm50 °FPartly cloudy.6 mph39%30.22 "Hg10 mi
Weather by CustomWeather, © 2020

See weather overview

Advertising